Regional Weather Roundup
Issued by NWS

Home | Current Version | Previous Version | Text Only | Print | Product List | Glossary On
Versions: 1 2 3 4 5 6 7 8 9 10 11 12 13 14 15 16 17 18 19 20 21 22 23 24 25 26 27 28 29 30 31 32 33 34 35 36 37 38 39 40 41 42 43 44 45 46 47 48 49 50
000
ASHW40 PHFO 220010
RWRHI

WEATHER ROUNDUP FOR HAWAII
NATIONAL WEATHER SERVICE HONOLULU HI
200 PM HST TUE OCT 21 2014

THIS IS AN AUTOMATED REPORT THAT HAS NOT BEEN QUALITY CONTROLLED.

NOTE..."FAIR" INDICATES FEW OR NO CLOUDS BELOW 12,000 FEET WITH NO
SIGNIFICANT WEATHER AND/OR OBSTRUCTIONS TO VISIBILITY.

* - THESE SITES REPORT LIMITED FIELDS

HIZ001>004-220100-
KAUAI-NIIHAU-

CITY           SKY/WX    TMP DP  RH WIND       PRES   REMARKS
LIHUE APT      FAIR      83  71  67 SE6       29.97F
PORT ALLEN*      N/A     84 N/A N/A SE10        N/A
POIPU*           N/A     88 N/A N/A E3          N/A
PRINCEVILLE*     N/A     86 N/A N/A MISG        N/A
KOKOLE POINT*  NOT AVBL
MOLOAA DAIRY*  NOT AVBL
WAIMEA HTS*    NOT AVBL
PUU OPAE*      NOT AVBL
PUU LUA*       NOT AVBL
MAKAHA RIDGE*  NOT AVBL
$$

HIZ005>011-220100-
OAHU-

CITY           SKY/WX    TMP DP  RH WIND       PRES   REMARKS
HONOLULU       FAIR      86  71  60 SE12      29.94F HX  91
KALAELOA       FAIR      84  73  69 SE9       29.96F HX  90
KANEOHE MCB    FAIR      85  74  69 E10       29.96F HX  92
WHEELER FIELD  MOSUNNY   84  69  60 VRB6      29.97F
BELLOWS*       NOT AVBL
KAHUKU*        NOT AVBL
WHEELER*       NOT AVBL
WAIANAE HARBOR NOT AVBL
DILLINGHAM*      N/A     68  59  73 N2G13       N/A
KAHUKU TRN*      N/A     79  72  78 E8G17       N/A
KAWAILOA*        N/A     82  72  69 NE8         N/A
KII*             N/A     82  73  74 E12G18      N/A
MAKUA RANGE*     N/A     82  73  74 SW3         N/A
OAHU FOREST NW NOT AVBL
SCHOFIELD BRK*   N/A     68  55  64 MISG        N/A
SCHOFIELD S*   NOT AVBL
WAIANAE VLY*   NOT AVBL
KUAOKALA*      NOT AVBL
HONOULIUULI*   NOT AVBL
MOKUOLOE IS*   NOT AVBL
PALEHUA*       NOT AVBL
WAIAWA PHB*    NOT AVBL
$$

HIZ012>013-220100-
MOLOKAI-

CITY           SKY/WX    TMP DP  RH WIND       PRES   REMARKS
MOLOKAI AIRPT  FAIR      82  75  79 NE10G17   29.96F
KALAUPAPA      NOT AVBL
MAKAPULAPAI*   NOT AVBL
MOLOKAI 1*     NOT AVBL
PUU ALII*      NOT AVBL
$$

HIZ016-220100-
KAHOOLAWE-

CITY           SKY/WX    TMP DP  RH WIND       PRES   REMARKS
KAHOOLAWE*     NOT AVBL
HAKIOAWA*      NOT AVBL
HONOKANAIA*      N/A     87  73  62 E14G22    29.96F HX  94
KANELOA*         N/A     82  72  69 E17G26      N/A
KEALIALALO*    NOT AVBL
LUA MAKIKA*    NOT AVBL
$$

HIZ014>015-220100-
LANAI-

CITY           SKY/WX    TMP DP  RH WIND       PRES   REMARKS
LANAI CITY       N/A    N/A N/A N/A MISG        N/A
LANAI 1*       NOT AVBL
$$

HIZ017>028-220100-
MAUI-

CITY           SKY/WX    TMP DP  RH WIND       PRES   REMARKS
KAHULUI        PTSUNNY   90  72  55 NE15      29.93F HX  97
KAPALUA-W MAUI LGT RAIN  81  75  83 NE17      29.94F
HANA AIRPORT   CLOUDY    82  73  74 E6        29.98S
HANA*          NOT AVBL
HALEAKALA SUMM   N/A     54  45  71 E20         N/A
MAALAEA BAY*   NOT AVBL
HALEAKALA*     NOT AVBL
KAUPO GAP*     NOT AVBL
KULA 1*          N/A     66  57  71 NW7         N/A
$$

HIZ023>026-220100-
BIG ISLAND OF HAWAII COAST AND LOWER SLOPES-

CITY           SKY/WX    TMP DP  RH WIND       PRES   REMARKS
KAILUA KONA    FAIR      86  72  62 W7        29.93F HX  92
HILO           FAIR      87  71  58 E14       29.95F HX  93
HONOKAA*       NOT AVBL
KAWAIHAE MWT*  NOT AVBL
KAWAIHAE*      NOT AVBL
SOUTH POINT*   NOT AVBL
UPOLU AIRPORT* NOT AVBL
KAMUELA*       MOCLDY    82  64  54 S9        30.06F
HAKALAU*         N/A     69  52  54 S6G14       N/A
KALOKO-HONOKO* NOT AVBL
PALI 2*          N/A     79  -2   4 SE13G22     N/A
KEALAKOMO*       N/A     86  72  62 E12         N/A  HX  92
KAUPULEHU*     NOT AVBL
KAPAPALA*        N/A     81  65  58 SE3G12      N/A
LOWER KAHUKU*  NOT AVBL
PUHE CS*       NOT AVBL
PUHO CS*       NOT AVBL
PTA KEAMUKU*     N/A     72  64  78 W7G14       N/A
WAIKOLOA*      NOT AVBL
$$

HIZ027>028-220100-
BIG ISLAND OF HAWAII INTERIOR AND SUMMMITS-

CITY           SKY/WX    TMP DP  RH WIND       PRES   REMARKS
BRADSHAW FIELD FAIR      71  48  44 S16G28    30.30F
MK VISITOR CEN NOT AVBL
MAUNA KEA*       N/A     46  34  61 NW16        N/A
MAUNA LOA*     NOT AVBL
MAUNA LOA 1*   NOT AVBL
PTA KIPUKA*      N/A     70  59  68 N6G13       N/A
PTA RANGE 17*    N/A    N/A N/A N/A NW9G16      N/A
PTA WEST*        N/A     72  64  78 NW9G16      N/A
NENE CABIN*    NOT AVBL
AHUMOA*        NOT AVBL
PTA PORTABLE*  NOT AVBL
PUU MALI*      NOT AVBL
$$

HIC003-220100-
NORTHWEST ISLANDS-

CITY           SKY/WX    TMP DP  RH WIND       PRES   REMARKS
MIDWAY ISLAND  SUNNY     86  77  74 S8        29.94F HX  97
MIDWAY NOS*    NOT AVBL
FRENCH FRIGATE NOT AVBL
$$

PHZ110>124-180-220100-
BUOY REPORTS

STATION/POSITION TIME  TEMP    WIND        PRES    WAVE   SWELL
                       AIR SEA DIR/SP/G            HT/PER HT/DIR
                 (UTC) (F)     (DEG/KT/KT) (MB)    (FT/S) (FT/D)
BUOY 51001       NOT AVBL
BUOY 51101       NOT AVBL
BUOY 51100       0000   79 80   90/ 14/ 16 1015.9F
BUOY 51003       2300   82 82  130/ 14/ 16 1014.3F   8/13   7
BUOY 51004       NOT AVBL
BARBERS PT BUOY  NOT AVBL
WAIMEA BAY BUOY  0000      82                N/A     6/12   5/350
KAILUA BAY BUOY  0000      82                N/A     8/13   5
LANAI BUOY       0000      82                N/A     3/12   2/220
BARBERS PT 2     0000      82                N/A     5/ 8   2/200
PAUWELA MAUI     0000      81                N/A     7/13   5/350
HILO             0000      81                N/A     7/11   3/350
KANEOHE BAY BUOY NOT AVBL
HANALEI KAUAI    NOT AVBL
KAHULUI HARBOR   0000   81 81   40/ 13/ 20 1013.6F
HONOLULU HARBOR  0000   87     140/  6/ 11 1014.3F
KILO NALU        NOT AVBL
HILO HARBOR      0000   94     130/ 10/ 16 1013.6F
MOKUOLOE         0000      82              1014.9F
NAWILIWILI       0000      82                N/A
WHOTS BUOY       NOT AVBL
BUOY 51028       NOT AVBL
$$

......................KEY........................................
  SKY/WX - SKY CONDITIONS/PRESENT WEATHER
  TMP    - TEMPERATURE IN FAHRENHEIT
  DWPT   - DEWPOINT IN FAHRENHEIT
  RH     - RELATIVE HUMIDITY IN PERCENT
  WIND   - DIRECTION AND SPEED /MPH FOR ISLANDS...KTS FOR BUOYS/
  PRES   - MEAN SEA LEVEL PRESSURE IN INCHES OF HG
  VSB    - VISIBILITY IN MILES
  HX     - HEAT INDEX
  WCI    - WIND CHILL INDEX
  VRB    - VARIABLE WIND DIRECTION
  N/A    - NOT AVAILABLE



USA.gov is the U.S. government's official web portal to all federal, state and local government web resources and services.